Change the Weather History Date:

Saturday, October 19, 2013

  Actual Average (KRIC) Record (KRIC)
Temperature  
Mean Temperature 61 °F 58 °F  
Max Temperature 68 °F 70 °F 87 °F (1938)
Min Temperature 54 °F 47 °F 28 °F (1976)
Degree Days  
Heating Degree Days 4 7  
Month to date heating degree days 97  
Since 1 July heating degree days 126  
Cooling Degree Days 0 1  
Month to date cooling degree days 32  
Year to date cooling degree days 1536  
Growing Degree Days 11 (Base 50)    
Moisture  
Dew Point 58 °F    
Average Humidity 84    
Maximum Humidity 90    
Minimum Humidity 76    
Precipitation  
Precipitation 0.00 in 0.10 in 2.83 in (1966)
Month to date precipitation 1.82  
Year to date precipitation 35.94  
Snow  
Snow 0.00 in 0.00 in T in (1972)
Month to date snowfall 0.0  
Since 1 July snowfall 0.0  
Snow Depth -    
Sea Level Pressure  
Sea Level Pressure 29.92 in    
Wind  
Wind Speed 2 mph (SSE)    
Max Wind Speed 8 mph    
Max Gust Speed -    
Visibility 10 miles    
Events      
T = Trace of Precipitation, MM = Missing Value Source: NWS Daily Summary

Daily Weather History Graph

Daily Weather History Graph

Search for Another Location

Airport or City:

Trip Planner

Search our weather history database for the weather conditions in past years. The results will help you decide how hot, cold, wet, or windy it might be!

Date:

Astronomy

Oct. 19, 2013 Rise Set
Actual Time 7:19 AM EDT 6:24 PM EDT
Civil Twilight 6:52 AM EDT 6:50 PM EDT
Nautical Twilight 6:22 AM EDT 7:21 PM EDT
Astronomical Twilight 5:51 AM EDT 7:51 PM EDT
Moon 6:52 PM EDT (10/19) 7:53 AM EDT (10/19)
Length of Visible Light 11h 57m
Length of Day
11h 04m
Waxing Gibbous, 99% of the Moon is Illuminated
Oct 19
Waxing Gibbous
Oct 26
Last Quarter
Nov 3
New
Nov 10
First Quarter
Nov 17
Full

Hourly Weather History & Observations

Time (EDT) Temp. Dew Point Humidity Pressure Visibility Wind Dir Wind Speed Gust Speed Precip Events Conditions
12:15 AM 57.2 °F 50.9 °F 79% 30.03 in 10.0 mi Calm Calm - N/A   Scattered Clouds
12:35 AM 56.5 °F 50.9 °F 82% 30.03 in 10.0 mi Calm Calm - N/A   Scattered Clouds
12:55 AM 57.2 °F 51.4 °F 81% 30.02 in 10.0 mi Calm Calm - N/A   Scattered Clouds
1:15 AM 57.2 °F 51.3 °F 81% 30.02 in 10.0 mi Calm Calm - N/A   Scattered Clouds
1:35 AM 57.2 °F 51.8 °F 82% 30.02 in 10.0 mi Calm Calm - N/A   Mostly Cloudy
1:55 AM 56.5 °F 51.8 °F 84% 30.02 in 10.0 mi Calm Calm - N/A   Scattered Clouds
2:15 AM 56.3 °F 51.8 °F 85% 30.00 in 10.0 mi ENE 3.5 mph - N/A   Scattered Clouds
2:35 AM 54.9 °F 51.4 °F 88% 29.99 in 10.0 mi ENE 3.5 mph - N/A   Clear
2:55 AM 56.7 °F 52.7 °F 87% 29.99 in 10.0 mi NE 3.5 mph - N/A   Scattered Clouds
3:15 AM 56.8 °F 52.2 °F 84% 29.99 in 10.0 mi Calm Calm - N/A   Scattered Clouds
3:35 AM 56.7 °F 52.3 °F 85% 29.97 in 10.0 mi Calm Calm - N/A   Scattered Clouds
3:55 AM 56.7 °F 52.7 °F 87% 29.97 in 10.0 mi Calm Calm - N/A   Scattered Clouds
4:15 AM 57.2 °F 52.7 °F 85% 29.98 in 10.0 mi Calm Calm - N/A   Mostly Cloudy
4:35 AM 57.9 °F 52.9 °F 83% 29.97 in 10.0 mi Calm Calm - N/A   Overcast
4:55 AM 57.4 °F 53.2 °F 86% 29.96 in 10.0 mi Calm Calm - N/A   Scattered Clouds
5:15 AM 57.2 °F 52.5 °F 84% 29.97 in 10.0 mi Calm Calm - N/A   Scattered Clouds
5:35 AM 57.4 °F 53.6 °F 87% 29.97 in 10.0 mi Calm Calm - N/A   Mostly Cloudy
5:55 AM 58.1 °F 54.3 °F 87% 29.97 in 10.0 mi Calm Calm - N/A   Overcast
6:15 AM 58.3 °F 54.9 °F 88% 29.97 in 10.0 mi Calm Calm - N/A   Overcast
6:35 AM 58.6 °F 55.4 °F 89% 29.96 in 10.0 mi East 3.5 mph - N/A   Overcast
6:55 AM 60.3 °F 55.4 °F 84% 29.96 in 10.0 mi ESE 5.8 mph - N/A   Overcast
7:15 AM 61.2 °F 54.7 °F 79% 29.96 in 10.0 mi East 6.9 mph - N/A   Overcast
7:35 AM 61.3 °F 54.5 °F 78% 29.97 in 10.0 mi East 4.6 mph - N/A   Overcast
7:55 AM 61.7 °F 54.7 °F 78% 29.98 in 10.0 mi East 3.5 mph - N/A   Overcast
8:15 AM 62.1 °F 54.7 °F 77% 29.97 in 10.0 mi East 5.8 mph - N/A   Overcast
8:35 AM 62.4 °F 55.2 °F 77% 29.98 in 10.0 mi East 3.5 mph - N/A   Overcast
8:55 AM 62.8 °F 55.4 °F 77% 29.98 in 10.0 mi East 3.5 mph - N/A   Overcast
9:15 AM 63.0 °F 55.2 °F 76% 29.98 in 10.0 mi East 3.5 mph - N/A   Overcast
9:35 AM 63.0 °F 55.8 °F 77% 29.98 in 10.0 mi Calm Calm - N/A   Overcast
9:55 AM 63.7 °F 55.9 °F 76% 29.96 in 10.0 mi East 4.6 mph - N/A   Mostly Cloudy
10:15 AM 63.5 °F 56.3 °F 77% 29.97 in 10.0 mi ESE 5.8 mph - N/A   Mostly Cloudy
10:35 AM 62.8 °F 57.6 °F 83% 29.96 in 10.0 mi ESE 6.9 mph - N/A   Overcast
10:55 AM 63.7 °F 59.2 °F 85% 29.94 in 10.0 mi ESE 6.9 mph - N/A   Mostly Cloudy
11:15 AM 64.4 °F 59.9 °F 85% 29.94 in 10.0 mi SE 6.9 mph - N/A   Scattered Clouds
11:35 AM 64.8 °F 59.2 °F 82% 29.94 in 10.0 mi SE 5.8 mph - N/A   Clear
11:55 AM 64.9 °F 59.5 °F 83% 29.94 in 7.0 mi SE 8.1 mph - N/A   Mostly Cloudy
12:15 PM 64.9 °F 59.7 °F 83% 29.93 in 10.0 mi ESE 4.6 mph - N/A   Overcast
12:35 PM 65.5 °F 60.6 °F 84% 29.92 in 10.0 mi SE 6.9 mph - N/A   Overcast
12:55 PM 65.3 °F 60.3 °F 84% 29.91 in 10.0 mi SE 4.6 mph - N/A   Overcast
2:55 PM 67.1 °F 60.6 °F 80% 29.86 in 10.0 mi SSE 6.9 mph - N/A   Overcast
3:15 PM 67.6 °F 60.4 °F 78% 29.86 in 10.0 mi SSE 5.8 mph - N/A   Overcast
3:35 PM 67.6 °F 60.6 °F 78% 29.85 in 10.0 mi SSE 8.1 mph - N/A   Overcast
3:55 PM 67.8 °F 61.0 °F 79% 29.85 in 10.0 mi SSE 6.9 mph - N/A   Overcast
4:15 PM 68.0 °F 60.8 °F 78% 29.84 in 10.0 mi South 4.6 mph - N/A   Overcast
4:35 PM 67.8 °F 61.0 °F 79% 29.83 in 10.0 mi South 5.8 mph - N/A   Overcast
4:55 PM 67.8 °F 61.0 °F 79% 29.84 in 10.0 mi SSE 4.6 mph - N/A   Overcast
5:15 PM 67.6 °F 61.3 °F 80% 29.84 in 10.0 mi SSE 3.5 mph - N/A   Overcast
5:35 PM 67.5 °F 61.2 °F 80% 29.84 in 10.0 mi South 3.5 mph - N/A   Overcast
5:55 PM 67.3 °F 61.5 °F 82% 29.85 in 10.0 mi Calm Calm - N/A   Overcast
6:15 PM 67.1 °F 61.9 °F 83% 29.85 in 10.0 mi SW 4.6 mph - N/A   Overcast
6:35 PM 66.9 °F 62.1 °F 84% 29.85 in 10.0 mi Calm Calm - N/A   Overcast
6:55 PM 66.7 °F 62.6 °F 86% 29.85 in 10.0 mi SW 4.6 mph - N/A   Overcast
7:15 PM 66.6 °F 62.6 °F 87% 29.86 in 4.0 mi SW 3.5 mph - N/A   Overcast
7:35 PM 66.2 °F 62.8 °F 89% 29.85 in 4.0 mi Calm Calm - N/A   Overcast
7:55 PM 66.2 °F 63.0 °F 89% 29.85 in 7.0 mi Calm Calm - N/A   Overcast
8:15 PM 65.8 °F 63.0 °F 90% 29.85 in 7.0 mi Calm Calm - N/A   Overcast
8:35 PM 66.2 °F 63.0 °F 89% 29.86 in 7.0 mi Calm Calm - N/A   Overcast
8:55 PM 66.0 °F 63.0 °F 90% 29.85 in 10.0 mi SSW 3.5 mph - N/A   Overcast
9:15 PM 65.8 °F 63.0 °F 90% 29.86 in 10.0 mi SSW 3.5 mph - N/A   Mostly Cloudy
9:35 PM 66.0 °F 63.0 °F 90% 29.86 in 10.0 mi SSW 3.5 mph - N/A   Overcast
9:55 PM 65.8 °F 62.8 °F 90% 29.87 in 10.0 mi SW 4.6 mph - N/A   Overcast
10:15 PM 66.0 °F 63.0 °F 90% 29.87 in 10.0 mi SW 4.6 mph - N/A   Overcast
10:35 PM 65.3 °F 62.2 °F 90% 29.87 in 7.0 mi West 4.6 mph - N/A   Mostly Cloudy
10:55 PM 65.3 °F 62.1 °F 89% 29.87 in 10.0 mi WSW 5.8 mph - N/A   Mostly Cloudy
11:15 PM 64.9 °F 61.7 °F 89% 29.88 in 7.0 mi West 6.9 mph - N/A   Scattered Clouds
11:35 PM 64.4 °F 61.2 °F 89% 29.88 in 10.0 mi West 8.1 mph - N/A   Scattered Clouds
11:55 PM 63.9 °F 60.4 °F 89% 29.88 in 10.0 mi West 5.8 mph - N/A   Scattered Clouds